Regional Weather Roundup
Issued by NWS Green Bay, WI

Current Version | Previous Version | Text Only | Print | Product List | Glossary On
Versions: 1 2 3 4 5 6 7 8 9 10 11 12 13 14 15 16 17 18 19 20 21 22 23 24 25 26 27 28 29 30 31 32 33 34 35 36 37 38 39 40 41 42 43 44 45 46 47 48 49 50
000
ASUS43 KGRB 051701
RWRGRB

NORTH-CENTRAL AND NORTHEAST WISCONSIN REGIONAL WEATHER ROUNDUP
NATIONAL WEATHER SERVICE GREEN BAY WI
1200 PM CDT WED AUG 05 2020

WIZ005-009-010>012-018-019-051800-
NORTH CENTRAL WISCONSIN

CITY           SKY/WX    TMP DP  RH WIND       PRES   REMARKS
IRONWOOD       MOSUNNY   71  56  58 W13       30.06S
MANITOWISH WTR CLOUDY    69  54  58 SW8       30.09S
ARBOR VITAE    NOT AVBL
EAGLE RIVER    SUNNY     70  48  46 W10G17    30.09S
LAND O LAKES   MOSUNNY   71  48  43 W7        30.10R
RHINELANDER    MOSUNNY   72  48  42 SW9G17    30.11R
PHILLIPS       PTSUNNY   68  54  59 SW8       30.10S
ANTIGO         SUNNY     69  47  44 SW6       30.11S
TOMAHAWK       PTSUNNY   70  50  49 W3        30.11S
MERRILL        MOSUNNY   72  51  47 W9        30.11S
$$

WIZ013-073-051800-
NORTHEAST WISCONSIN

CITY           SKY/WX    TMP DP  RH WIND       PRES   REMARKS
IRON MOUNTAIN  SUNNY     72  49  44 NW9       30.06S
MARINETTE      SUNNY     69  51  52 S5        30.10S
OCONTO         SUNNY     71  51  48 SW8       30.09S
$$

WIZ017-030-035>037-045-051800-
CENTRAL WISCONSIN

CITY           SKY/WX    TMP DP  RH WIND       PRES   REMARKS
MEDFORD        NOT AVBL
WAUSAU         LGT RAIN  71  48  43 MISG      30.10S
MOSINEE        MOSUNNY   70  45  40 SW9       30.13S
MARSHFIELD     PTSUNNY   70  55  59 VRB6      30.12S
WISC RAPIDS    PTSUNNY   72  52  49 VRB5      30.12S
STEVENS POINT  NOT AVBL
WAUPACA        PTSUNNY   76  46  35 CALM      30.12S
SHAWANO        MOSUNNY   72  51  47 W3        30.10S
CLINTONVILLE   MOSUNNY   71  47  41 W5        30.11S
WAUTOMA        PTSUNNY   74  43  32 VRB6      30.11F
$$

WIZ038-039-048-051-051800-
FOX VALLEY

CITY           SKY/WX    TMP DP  RH WIND       PRES   REMARKS
NWS GREEN BAY  MOSUNNY   72  54  53 VRB5      30.10S
APPLETON       MOSUNNY   70  43  37 CALM      30.11R
OSHKOSH        PTSUNNY   71  54  54 CALM      30.11R
FOND DU LAC    MOSUNNY   73  55  53 W7        30.11S
$$

WIZ022-050-052-051800-
EAST CENTRAL WISCONSIN

CITY           SKY/WX    TMP DP  RH WIND       PRES   REMARKS
EPHRAIM        NOT AVBL
WASHINGTON ISL NOT AVBL
STURGEON BAY   MOSUNNY   68  52  56 SW3       30.11S
MANITOWOC      MOSUNNY   70  55  59 SE3       30.12R
SHEBOYGAN      PTSUNNY   74  54  49 VRB3      30.11R
$$

LMZ563-521-522-541>543-051800-
LAKESHORE

STATION/POSITION TIME  TEMP    WIND        PRES    VSBY  WAVE
                       AIR SEA DIR/SP/G                  HT/PER
                 (UTC) (F)     (DEG/KT/KT) (MB)    (MI)  (FT/S)
SHEBOYGAN LKSHOR 1600   65      60/  5/  6   N/A
KEWAUNEE LKSHORE 1624          130/  4/  7 1019.0
N MID LAKE BUOY  1640   62 69  240/  6/  8 1018.9F
S GREEN BAY BUOY 1600   64     170/  4/  6 1018.5
SISTER BAY LKSHO 1630   67        CALM       N/A
MENOMINEE LKSHOR 1630      73  140/  6/  8 1018.8S
$$



USA.gov is the U.S. government's official web portal to all federal, state and local government web resources and services.